Simultaneous Nadir Overpasses (SNOs) Predictions

Prediction of SNOs between METOP-B and NOAA-19 Satellite Orbit:

Table of predicted SNOs for the next 14.0 days since TLE Epoch: 12/7/2024
Index Date (METOP-B) Time (METOP-B) Lat,Lon (METOP-B) SZA (METOP-B ) Date (NOAA-19) Time (NOAA-19) Lat,Lon (NOAA-19) SZA (NOAA-19 ) Distance(km) Time Diff (sec)
1 12/15/2024 10:28:58 79.93, 103.55 111.52 12/15/2024 10:27:47 79.93, 103.55 111.47 0.16 71
2 12/15/2024 11:19:37 -79.89, -88.74 68.43 12/15/2024 11:18:39 -79.89, -88.62 68.45 2.46 58
3 12/15/2024 12:10:17 79.87, 78.82 111.61 12/15/2024 12:09:42 79.88, 78.69 111.57 2.79 35
4 12/15/2024 13:00:56 -79.83,-113.48 68.34 12/15/2024 13:00:34 -79.83,-113.49 68.35 0.18 22
5 12/15/2024 13:51:35 79.77, 54.36 111.75 12/15/2024 13:51:35 79.77, 54.42 111.76 1.17 0
6 12/15/2024 14:42:15 -79.76,-138.23 68.24 12/15/2024 14:42:29 -79.77,-138.36 68.26 2.81 14
7 12/15/2024 15:32:53 79.67, 29.89 111.88 12/15/2024 15:33:29 79.68, 29.83 111.90 1.50 36
8 12/15/2024 16:23:32 -79.63,-162.43 68.07 12/15/2024 16:24:21 -79.63,-162.38 68.02 1.13 49



Historial Predications of SNOs between METOP-B and NOAA-19
